Simultaneous Nadir Overpasses (SNOs) Predictions

Prediction of SNOs between FY3D and TERRA Satellite Orbit:

Table of predicted SNOs for the next 14.0 days since TLE Epoch: 4/13/2024
Index Date (FY3D) Time (FY3D) Lat,Lon (FY3D) SZA (FY3D ) Date (TERRA) Time (TERRA) Lat,Lon (TERRA) SZA (TERRA ) Distance(km) Time Diff (sec)
1 04/15/2024 13:57:05 75.76, -30.49 65.61 04/15/2024 13:58:13 75.68, -28.42 65.53 57.44 68
2 04/15/2024 14:47:40 -75.34, 138.19 114.84 04/15/2024 14:47:42 -75.31, 138.21 114.87 3.53 2
3 04/15/2024 15:38:19 74.97, -53.39 64.79 04/15/2024 15:37:09 75.01, -54.90 64.83 43.67 70
4 04/18/2024 02:00:41 -75.38, -30.13 115.66 04/18/2024 02:01:19 -75.38, -30.03 115.66 2.83 38
5 04/18/2024 02:51:26 75.29, 137.43 64.25 04/18/2024 02:50:42 75.29, 137.37 64.24 1.82 44
6 04/20/2024 13:13:44 -75.51, 161.23 116.38 04/20/2024 13:14:56 -75.43, 161.66 116.46 14.87 72
7 04/20/2024 14:04:27 75.34, -30.93 63.45 04/20/2024 14:04:19 75.34, -30.94 63.44 1.04 8
8 04/20/2024 14:54:58 -74.72, 138.24 117.18 04/20/2024 14:53:52 -74.76, 135.24 117.15 87.79 66
9 04/23/2024 01:17:28 75.40, 160.70 62.67 04/23/2024 01:17:55 75.41, 160.82 62.68 3.59 27
10 04/23/2024 02:08:11 -75.34, -31.79 117.40 04/23/2024 02:07:18 -75.35, -31.69 117.39 3.21 53
11 04/25/2024 12:30:28 75.42, -7.55 61.88 04/25/2024 12:31:32 75.41, -7.62 61.88 1.84 64
12 04/25/2024 13:21:11 -75.35, 159.97 118.20 04/25/2024 13:20:55 -75.36, 159.89 118.20 2.39 16



Historial Predications of SNOs between FY3D and TERRA
